Skip Page Navigation
NASA JPL Caltech
NASA Logo - Jet Propulsion Laboratory + View the NASA Portal
+ Near-Earth Object (NEO) Program
Search JPL
JPL Home Earth Solar System Stars & Galaxies Technology
JPL Solar System Dynamics
BODIES ORBITS EPHEMERIDES TOOLS PHYSICAL DATA DISCOVERY FAQ SITE MAP
JPL Small-Body Database Browser
Search: [ help ]  
14344 (1985 CP2)
Classification: Main-belt Asteroid          SPK-ID: 2014344
Ephemeris | Orbit Diagram | Orbital Elements | Physical Parameters | Discovery Circumstances ]

[ show orbit diagram ]
Orbital Elements at Epoch 2456800.5 (2014-May-23.0) TDB
Reference: JPL 11 (heliocentric ecliptic J2000)
 Element Value Uncertainty (1-sigma)   Units 
e .1343546736853186 4.9734e-08  
a 2.390492138744384 1.4393e-08 AU
q 2.069318347496063 1.2207e-07 AU
i 1.790512296198485 5.8425e-06 deg
node 295.6254792617684 0.00017614 deg
peri 144.842881514777 0.00017893 deg
M 27.57762816882801 2.8224e-05 deg
tp 2456697.084933030064
(2014-Feb-08.58493303)
0.00010599 JED
period 1349.986441229156
3.70
1.2192e-05
3.338e-08
d
yr
n .2666693449692887 2.4084e-09 deg/d
Q 2.711665929992706 1.6327e-08 AU
  Orbit Determination Parameters
   # obs. used (total)      764  
   data-arc span      10637 days (29.12 yr)  
   first obs. used      1985-02-15  
   last obs. used      2014-04-01  
   planetary ephem.      DE431  
   SB-pert. ephem.      SB431-BIG16  
   condition code      0  
   fit RMS      .60583  
   data source      ORB  
   producer      Otto Matic  
   solution date      2014-Jun-09 20:54:00  

Additional Information
 Earth MOID = 1.08458 AU 
 T_jup = 3.519 
[ show covariance matrix ]

Ephemeris | Orbit Diagram | Orbital Elements | Physical Parameters | Discovery Circumstances ]

Physical Parameter Table
Parameter Symbol Value Units Sigma Reference Notes
absolute magnitude H 15.1 mag n/a MPO266033  

14344 (1985 CP2)          Discovered 1985-Feb-15 by Debehogne, H. at La Silla (809)
Reference: 20000418/Numbers.arcLast Updated: 2004-04-19

Alternate Designations
 1985 CP2 = 1994 PF35 
Ephemeris | Orbit Diagram | Orbital Elements | Physical Parameters | Discovery Circumstances ]
ABOUT SSD CREDITS/AWARDS PRIVACY/COPYRIGHT GLOSSARY LINKS
FirstGov 2014-Aug-02 00:22 UT
(server date/time)  
NASA Home Page
Site Manager:   Donald K. Yeomans
Webmaster  Alan B. Chamberlin